Weather reports worldwide

Advertisment
Ploce, Croatia (14462): temperature & dewpoint: 16.07.2019 04:00:00 - 22.07.2019 04:00:00 (CEST)Ploce, Croatia (14462): wind speed: 16.07.2019 04:00:00 - 22.07.2019 04:00:00 (CEST)Ploce, Croatia (14462): wind direction: 16.07.2019 04:00:00 - 22.07.2019 04:00:00 (CEST)Ploce, Croatia (14462): reduced air pressure: 16.07.2019 04:00:00 - 22.07.2019 04:00:00 (CEST)Ploce, Croatia (14462): visibility: 16.07.2019 04:00:00 - 22.07.2019 04:00:00 (CEST)
Date & Time tt [°C] td [°C] ff [km/h] ff [kn] dd ppp [hPa] vv [km]
22.07.2019 04:00:00 - - - - - - -
22.07.2019 03:00:00 - - - - - - -
22.07.2019 02:00:00 21,7 18,0 7 4 E 1019,3 -
22.07.2019 01:00:00 - - - - - - -
22.07.2019 00:00:00 - - - - - - -
21.07.2019 23:00:00 23,0 18,8 4 2 ENE 1019,0 -
21.07.2019 22:00:00 25,2 17,3 7 4 ESE 1018,5 30
21.07.2019 21:00:00 26,7 17,2 7 4 ENE 1018,4 30
21.07.2019 20:00:00 27,6 17,5 14 8 NW 1017,6 30
21.07.2019 19:00:00 28,6 16,3 - - - 1017,7 -
21.07.2019 18:00:00 29,0 15,9 - - - 1017,7 -
21.07.2019 17:00:00 29,0 15,9 22 12 W 1017,9 -
21.07.2019 16:00:00 30,1 14,7 - - - 1018,2 -
21.07.2019 15:00:00 32,1 9,6 18 10 W 1018,3 30
21.07.2019 14:00:00 32,6 8,4 18 10 W 1018,5 30
21.07.2019 13:00:00 32,0 11,3 14 8 WSW 1018,7 30
21.07.2019 12:00:00 29,9 14,1 14 8 SW 1019,1 30
21.07.2019 11:00:00 28,5 15,2 7 4 SW 1019,1 30
21.07.2019 10:00:00 27,5 15,2 7 4 SE 1019,1 30
21.07.2019 09:00:00 25,5 14,4 7 4 ESE 1019,5 30
21.07.2019 08:00:00 23,2 14,6 7 4 E 1019,5 30
21.07.2019 07:00:00 21,0 15,2 4 2 E 1019,8 -
21.07.2019 06:00:00 19,1 15,0 4 2 E 1019,4 -
21.07.2019 05:00:00 19,2 14,5 4 2 ENE 1019,1 -
21.07.2019 04:00:00 - - - - - - -
21.07.2019 03:00:00 - - - - - - -
21.07.2019 02:00:00 20,3 14,3 4 2 ENE 1019,2 -
21.07.2019 01:00:00 - - - - - - -
21.07.2019 00:00:00 - - - - - - -
20.07.2019 23:00:00 22,6 15,8 4 2 E 1018,8 -
20.07.2019 22:00:00 26,6 14,1 7 4 ENE 1018,5 30
20.07.2019 21:00:00 26,8 13,6 7 4 NNE 1017,7 30
20.07.2019 20:00:00 27,6 14,2 7 4 E 1017,4 30
20.07.2019 19:00:00 27,9 16,3 11 6 W 1017,6 -
20.07.2019 18:00:00 29,0 14,9 11 6 W 1017,5 -
20.07.2019 17:00:00 29,1 15,7 18 10 W 1017,7 -
20.07.2019 16:00:00 30,1 14,7 22 12 W 1017,8 -
20.07.2019 15:00:00 31,5 12,8 14 8 W 1017,5 30
20.07.2019 14:00:00 30,0 18,3 14 8 W 1017,6 30
20.07.2019 13:00:00 30,0 13,8 11 6 SW 1018,0 30
20.07.2019 12:00:00 29,1 15,6 11 6 SW 1018,0 30
20.07.2019 11:00:00 28,2 15,9 11 6 SW 1018,1 30
20.07.2019 10:00:00 27,0 16,8 7 4 SSE 1018,1 30
20.07.2019 09:00:00 24,8 16,1 7 4 SE 1018,0 30
20.07.2019 08:00:00 22,4 16,0 4 2 SE 1018,0 30
20.07.2019 07:00:00 20,9 15,5 7 4 E 1017,9 -
20.07.2019 06:00:00 19,6 15,5 0 0 N 1017,7 -
20.07.2019 05:00:00 19,7 15,4 - - - 1017,3 -
20.07.2019 04:00:00 - - - - - - -
20.07.2019 03:00:00 - - - - - - -
20.07.2019 02:00:00 20,4 17,5 4 2 ENE 1016,9 -
20.07.2019 01:00:00 - - - - - - -
20.07.2019 00:00:00 - - - - - - -
19.07.2019 23:00:00 22,6 18,0 4 2 S 1016,7 -
19.07.2019 22:00:00 24,4 19,5 4 2 NNW 1016,1 30
19.07.2019 21:00:00 25,7 17,5 14 8 WNW 1015,8 30
19.07.2019 20:00:00 27,0 15,6 14 8 NW 1015,4 30
19.07.2019 19:00:00 28,0 15,0 - - - 1015,2 -
19.07.2019 18:00:00 28,6 16,6 - - - 1015,1 -
19.07.2019 17:00:00 29,1 15,0 14 8 W 1015,1 -
19.07.2019 16:00:00 29,0 15,9 14 8 W 1015,1 -
19.07.2019 15:00:00 29,8 14,2 18 10 W 1015,1 30
19.07.2019 14:00:00 29,8 13,6 14 8 W 1015,4 30
19.07.2019 13:00:00 29,8 13,2 14 8 SW 1015,5 30
19.07.2019 12:00:00 29,1 12,8 11 6 S 1015,7 30
19.07.2019 11:00:00 27,8 15,1 11 6 SSE 1015,7 30
19.07.2019 10:00:00 26,4 15,6 7 4 SE 1015,7 30
19.07.2019 09:00:00 24,0 15,6 7 4 ESE 1015,7 30
19.07.2019 08:00:00 21,8 16,3 7 4 ESE 1015,6 30
19.07.2019 07:00:00 21,4 15,5 7 4 ESE 1015,4 -
19.07.2019 06:00:00 18,8 15,9 4 2 NNE 1015,1 -
19.07.2019 05:00:00 18,9 15,8 4 2 ENE 1014,8 -
19.07.2019 04:00:00 - - - - - - -
19.07.2019 03:00:00 - - - - - - -
19.07.2019 02:00:00 19,9 17,2 4 2 ENE 1014,2 -
19.07.2019 01:00:00 - - - - - - -
19.07.2019 00:00:00 - - - - - - -
18.07.2019 23:00:00 21,8 19,0 4 2 E 1013,6 -
18.07.2019 22:00:00 23,4 18,8 7 4 ESE 1012,9 30
18.07.2019 21:00:00 24,6 17,8 7 4 S 1012,5 30
18.07.2019 20:00:00 26,8 15,7 11 6 WSW 1012,1 30
18.07.2019 19:00:00 27,5 14,6 11 6 WSW 1011,6 -
18.07.2019 18:00:00 28,0 15,0 14 8 W 1011,1 -
18.07.2019 17:00:00 29,0 14,1 11 6 WNW 1011,1 -
18.07.2019 16:00:00 29,7 14,3 11 6 WSW 1011,3 -
18.07.2019 15:00:00 29,9 13,5 18 10 SW 1011,7 30
18.07.2019 14:00:00 29,9 13,8 18 10 S 1011,7 30
18.07.2019 13:00:00 29,6 12,9 18 10 S 1011,7 30
18.07.2019 12:00:00 29,1 13,9 7 4 SSE 1011,7 30
18.07.2019 11:00:00 28,2 12,7 7 4 SSE 1011,7 30
18.07.2019 10:00:00 26,5 15,1 7 4 ESE 1011,7 30
18.07.2019 09:00:00 24,0 14,1 7 4 E 1011,7 30
18.07.2019 08:00:00 21,7 13,8 7 4 E 1011,4 30
18.07.2019 07:00:00 20,0 13,1 7 4 E 1011,4 -
18.07.2019 06:00:00 18,7 12,7 7 4 ESE 1011,3 -
18.07.2019 05:00:00 17,9 13,9 7 4 E 1011,2 -
18.07.2019 04:00:00 - - - - - - -
18.07.2019 03:00:00 - - - - - - -
18.07.2019 02:00:00 20,0 15,5 0 0 N 1011,3 -
18.07.2019 01:00:00 - - - - - - -
18.07.2019 00:00:00 - - - - - - -
17.07.2019 23:00:00 23,2 15,6 4 2 NNW 1011,1 -
17.07.2019 22:00:00 24,3 15,2 18 10 NW 1010,9 30
17.07.2019 21:00:00 24,8 12,4 22 12 WNW 1010,3 30
17.07.2019 20:00:00 26,0 10,2 29 16 WNW 1010,1 30
17.07.2019 19:00:00 26,7 10,0 - - - 1010,1 -
17.07.2019 18:00:00 26,9 9,8 29 16 W 1010,1 -
17.07.2019 17:00:00 27,2 11,3 - - - 1010,4 -
17.07.2019 16:00:00 28,2 11,4 29 16 W 1010,3 -
17.07.2019 15:00:00 29,0 10,3 25 14 W 1010,8 30
17.07.2019 14:00:00 28,8 10,0 22 12 W 1010,9 30
17.07.2019 13:00:00 28,2 10,0 18 10 W 1011,1 30
17.07.2019 12:00:00 27,2 12,9 14 8 WSW 1011,4 30
17.07.2019 11:00:00 26,2 12,6 18 10 SW 1011,9 30
17.07.2019 10:00:00 26,6 9,5 11 6 NNE 1012,0 30
17.07.2019 09:00:00 25,5 9,5 18 10 NNE 1012,1 30
17.07.2019 08:00:00 23,8 10,0 11 6 NNE 1012,0 30
17.07.2019 07:00:00 22,2 9,1 - - - 1012,1 -
17.07.2019 06:00:00 21,1 8,4 - - - 1011,9 -
17.07.2019 05:00:00 21,6 8,2 18 10 NNE 1011,7 -
17.07.2019 04:00:00 - - - - - - -
17.07.2019 03:00:00 - - - - - - -
17.07.2019 02:00:00 22,1 8,3 - - - 1011,8 -
17.07.2019 01:00:00 - - - - - - -
17.07.2019 00:00:00 - - - - - - -
16.07.2019 23:00:00 23,1 8,5 11 6 NNW 1011,4 -
16.07.2019 22:00:00 24,1 9,8 14 8 NNE 1010,9 30
16.07.2019 21:00:00 24,8 8,7 7 4 NNE 1010,1 30
16.07.2019 20:00:00 27,4 7,6 14 8 NNE 1009,3 30
16.07.2019 19:00:00 28,3 7,0 18 10 NNE 1008,9 -
16.07.2019 18:00:00 29,4 6,8 11 6 NNE 1008,6 -
16.07.2019 17:00:00 29,3 6,7 14 8 E 1008,4 -
16.07.2019 16:00:00 29,5 6,9 14 8 NNE 1008,2 -
16.07.2019 15:00:00 29,6 7,8 18 10 NNE 1008,4 30
16.07.2019 14:00:00 29,1 8,8 11 6 NNE 1008,5 30
16.07.2019 13:00:00 28,3 9,0 18 10 NNE 1009,0 30
16.07.2019 12:00:00 27,2 9,5 18 10 NNE 1009,0 30
16.07.2019 11:00:00 26,5 10,1 22 12 NNE 1009,0 30
16.07.2019 10:00:00 25,3 10,1 22 12 NNE 1009,2 30
16.07.2019 09:00:00 24,5 11,2 18 10 NNE 1009,3 30
16.07.2019 08:00:00 23,8 11,1 14 8 NNE 1009,0 30
16.07.2019 07:00:00 23,0 9,5 - - - 1008,7 -
16.07.2019 06:00:00 22,5 10,4 - - - 1008,6 -
16.07.2019 05:00:00 22,6 10,5 - - - 1008,8 -
16.07.2019 04:00:00 - - - - - - -

tt = temperature
td = dewpoint
ff = wind speed
dd = wind direction
ppp = reduced air pressure
vv = visibility

Next stations